Time,TemperatureF,DewpointF,PressureIn,WindDirection,WindDirectionDegrees,WindSpeedMPH,WindSpeedGustMPH,Humidity,HourlyPrecipIn,Conditions,Clouds,dailyrainin,SoftwareType,DateUTC
2013-10-09 00:17:00,34.0,33.0,30.19,SSW,202,0.0,0.0,96,0.00,,,0.00,TxWx,2013-10-09 04:17:00,
2013-10-09 00:22:00,33.0,31.0,30.18,South,180,0.0,0.0,96,0.00,,,0.00,TxWx,2013-10-09 04:22:00,
2013-10-09 00:28:00,33.0,31.0,30.18,SW,225,0.0,0.0,96,0.00,,,0.00,TxWx,2013-10-09 04:28:00,
2013-10-09 00:33:00,33.0,31.0,30.19,South,180,0.0,0.0,96,0.00,,,0.00,TxWx,2013-10-09 04:33:00,
2013-10-09 00:38:00,33.0,31.0,30.18,SSW,202,0.0,0.0,96,0.00,,,0.00,TxWx,2013-10-09 04:38:00,
2013-10-09 00:43:00,33.0,31.0,30.18,SSW,202,0.0,0.0,96,0.00,,,0.00,TxWx,2013-10-09 04:43:00,
2013-10-09 00:49:00,33.0,31.0,30.18,South,180,0.0,0.0,96,0.00,,,0.00,TxWx,2013-10-09 04:49:00,
2013-10-09 00:54:00,33.0,31.0,30.18,South,180,0.0,0.0,96,0.00,,,0.00,TxWx,2013-10-09 04:54:00,
2013-10-09 00:59:00,32.0,30.0,30.19,South,180,0.0,0.0,96,0.00,,,0.00,TxWx,2013-10-09 04:59:00,
2013-10-09 01:04:00,32.0,30.0,30.19,SE,135,1.0,2.0,96,0.00,,,0.00,TxWx,2013-10-09 05:04:00,
2013-10-09 01:09:00,32.0,30.0,30.20,ESE,112,1.0,2.0,97,0.00,,,0.00,TxWx,2013-10-09 05:09:00,
2013-10-09 01:14:00,32.0,30.0,30.20,SE,135,0.0,1.0,97,0.00,,,0.00,TxWx,2013-10-09 05:14:00,
2013-10-09 01:19:00,32.0,30.0,30.20,SSW,202,0.0,0.0,97,0.00,,,0.00,TxWx,2013-10-09 05:19:00,
2013-10-09 01:24:00,32.0,30.0,30.20,SSE,157,1.0,1.0,97,0.00,,,0.00,TxWx,2013-10-09 05:24:00,
2013-10-09 01:29:00,32.0,30.0,30.20,SE,135,0.0,0.0,97,0.00,,,0.00,TxWx,2013-10-09 05:29:00,
2013-10-09 01:34:00,32.0,30.0,30.20,NNW,337,1.0,1.0,97,0.00,,,0.00,TxWx,2013-10-09 05:34:00,
2013-10-09 01:39:00,32.0,30.0,30.20,South,180,0.0,0.0,97,0.00,,,0.00,TxWx,2013-10-09 05:39:00,
2013-10-09 01:44:00,32.0,30.0,30.20,South,180,0.0,0.0,97,0.00,,,0.00,TxWx,2013-10-09 05:44:00,
2013-10-09 01:49:00,32.0,30.0,30.20,SSE,157,0.0,0.0,97,0.00,,,0.00,TxWx,2013-10-09 05:49:00,
2013-10-09 01:54:00,32.0,30.0,30.21,SSE,157,0.0,0.0,97,0.00,,,0.00,TxWx,2013-10-09 05:54:00,
2013-10-09 02:00:00,32.0,30.0,30.21,South,180,0.0,0.0,98,0.00,,,0.00,TxWx,2013-10-09 06:00:00,
2013-10-09 02:05:00,32.0,30.0,30.21,SSW,202,0.0,0.0,98,0.00,,,0.00,TxWx,2013-10-09 06:05:00,
2013-10-09 02:10:00,32.0,30.0,30.21,SSW,202,0.0,0.0,98,0.00,,,0.00,TxWx,2013-10-09 06:10:00,
2013-10-09 02:15:00,32.0,30.0,30.21,South,180,0.0,0.0,98,0.00,,,0.00,TxWx,2013-10-09 06:15:00,
2013-10-09 02:20:00,32.0,30.0,30.20,SE,135,1.0,1.0,98,0.00,,,0.00,TxWx,2013-10-09 06:20:00,
2013-10-09 02:25:00,32.0,30.0,30.21,SSW,202,1.0,2.0,98,0.00,,,0.00,TxWx,2013-10-09 06:25:00,
2013-10-09 02:30:00,32.0,30.0,30.21,South,180,0.0,0.0,98,0.00,,,0.00,TxWx,2013-10-09 06:30:00,
2013-10-09 02:35:00,31.0,30.0,30.20,SSE,157,1.0,1.0,98,0.00,,,0.00,TxWx,2013-10-09 06:35:00,
2013-10-09 02:40:00,31.0,30.0,30.21,South,180,0.0,1.0,98,0.00,,,0.00,TxWx,2013-10-09 06:40:00,
2013-10-09 02:45:00,31.0,30.0,30.21,SSE,157,1.0,1.0,98,0.00,,,0.00,TxWx,2013-10-09 06:45:00,
2013-10-09 02:50:00,31.0,30.0,30.21,SSW,202,1.0,1.0,99,0.00,,,0.00,TxWx,2013-10-09 06:50:00,
2013-10-09 02:55:00,31.0,30.0,30.21,SSE,157,0.0,0.0,99,0.00,,,0.00,TxWx,2013-10-09 06:55:00,
2013-10-09 03:00:00,30.0,29.0,30.21,South,180,0.0,0.0,99,0.00,,,0.00,TxWx,2013-10-09 07:00:00,
2013-10-09 03:06:00,30.0,29.0,30.20,South,180,0.0,0.0,99,0.00,,,0.00,TxWx,2013-10-09 07:06:00,
2013-10-09 03:11:00,30.0,29.0,30.21,SSE,157,1.0,1.0,99,0.00,,,0.00,TxWx,2013-10-09 07:11:00,
2013-10-09 03:16:00,30.0,29.0,30.21,South,180,1.0,1.0,99,0.00,,,0.00,TxWx,2013-10-09 07:16:00,
2013-10-09 03:21:00,30.0,29.0,30.21,WSW,247,0.0,0.0,99,0.00,,,0.00,TxWx,2013-10-09 07:21:00,
2013-10-09 03:26:00,30.0,29.0,30.21,SSW,202,0.0,0.0,99,0.00,,,0.00,TxWx,2013-10-09 07:26:00,
2013-10-09 03:31:00,31.0,31.0,30.21,SSW,202,0.0,0.0,100,0.00,,,0.00,TxWx,2013-10-09 07:31:00,
2013-10-09 03:36:00,31.0,31.0,30.21,SW,225,0.0,0.0,100,0.00,,,0.00,TxWx,2013-10-09 07:36:00,
2013-10-09 03:41:00,31.0,31.0,30.21,SSW,202,0.0,0.0,100,0.00,,,0.00,TxWx,2013-10-09 07:41:00,
2013-10-09 03:46:00,31.0,31.0,30.21,SSE,157,0.0,1.0,100,0.00,,,0.00,TxWx,2013-10-09 07:46:00,
2013-10-09 03:51:00,31.0,31.0,30.21,South,180,0.0,1.0,100,0.00,,,0.00,TxWx,2013-10-09 07:51:00,
2013-10-09 03:56:00,31.0,31.0,30.21,SSW,202,0.0,0.0,100,0.00,,,0.00,TxWx,2013-10-09 07:56:00,
2013-10-09 04:01:00,31.0,31.0,30.21,SE,135,0.0,0.0,100,0.00,,,0.00,TxWx,2013-10-09 08:01:00,
2013-10-09 04:06:00,31.0,31.0,30.21,South,180,0.0,0.0,100,0.00,,,0.00,TxWx,2013-10-09 08:06:00,
2013-10-09 04:11:00,30.0,30.0,30.21,South,180,0.0,0.0,100,0.00,,,0.00,TxWx,2013-10-09 08:11:00,
2013-10-09 04:16:00,30.0,30.0,30.21,SSE,157,0.0,0.0,100,0.00,,,0.00,TxWx,2013-10-09 08:16:00,
2013-10-09 04:21:00,30.0,30.0,30.22,South,180,0.0,0.0,100,0.00,,,0.00,TxWx,2013-10-09 08:21:00,
2013-10-09 04:26:00,30.0,30.0,30.22,SSE,157,0.0,0.0,100,0.00,,,0.00,TxWx,2013-10-09 08:26:00,
2013-10-09 04:31:00,31.0,31.0,30.22,SSE,157,0.0,0.0,100,0.00,,,0.00,TxWx,2013-10-09 08:31:00,
2013-10-09 04:36:00,31.0,31.0,30.22,ESE,112,1.0,1.0,100,0.00,,,0.00,TxWx,2013-10-09 08:36:00,
2013-10-09 04:41:00,31.0,31.0,30.22,ESE,112,1.0,1.0,100,0.00,,,0.00,TxWx,2013-10-09 08:41:00,
2013-10-09 04:46:00,30.0,30.0,30.22,SE,135,1.0,1.0,100,0.00,,,0.00,TxWx,2013-10-09 08:46:00,
2013-10-09 04:51:00,30.0,30.0,30.22,SSE,157,0.0,0.0,100,0.00,,,0.00,TxWx,2013-10-09 08:51:00,
2013-10-09 04:56:00,30.0,30.0,30.22,SSE,157,0.0,0.0,100,0.00,,,0.00,TxWx,2013-10-09 08:56:00,
2013-10-09 05:01:00,30.0,30.0,30.23,SSE,157,0.0,0.0,100,0.00,,,0.00,TxWx,2013-10-09 09:01:00,
2013-10-09 05:06:00,30.0,30.0,30.23,SSE,157,0.0,0.0,100,0.00,,,0.00,TxWx,2013-10-09 09:06:00,
2013-10-09 05:12:00,30.0,30.0,30.23,SSE,157,1.0,1.0,100,0.00,,,0.00,TxWx,2013-10-09 09:12:00,
2013-10-09 05:17:00,30.0,30.0,30.23,SSE,157,1.0,1.0,100,0.00,,,0.00,TxWx,2013-10-09 09:17:00,
2013-10-09 05:22:00,30.0,30.0,30.23,SSE,157,0.0,1.0,100,0.00,,,0.00,TxWx,2013-10-09 09:22:00,
2013-10-09 05:27:00,30.0,30.0,30.23,SSE,157,1.0,2.0,100,0.00,,,0.00,TxWx,2013-10-09 09:27:00,
2013-10-09 05:32:00,29.0,29.0,30.23,SSE,157,0.0,0.0,100,0.00,,,0.00,TxWx,2013-10-09 09:32:00,
2013-10-09 05:37:00,29.0,29.0,30.23,SSE,157,0.0,0.0,100,0.00,,,0.00,TxWx,2013-10-09 09:37:00,
2013-10-09 05:42:00,29.0,29.0,30.23,SSE,157,0.0,0.0,100,0.00,,,0.00,TxWx,2013-10-09 09:42:00,
2013-10-09 05:47:00,29.0,29.0,30.23,SSE,157,0.0,0.0,100,0.00,,,0.00,TxWx,2013-10-09 09:47:00,
2013-10-09 05:52:00,29.0,29.0,30.23,SSE,157,1.0,1.0,100,0.00,,,0.00,TxWx,2013-10-09 09:52:00,
2013-10-09 05:57:00,29.0,29.0,30.23,SSE,157,0.0,0.0,100,0.00,,,0.00,TxWx,2013-10-09 09:57:00,
2013-10-09 06:02:00,29.0,29.0,30.23,SSE,157,0.0,0.0,100,0.00,,,0.00,TxWx,2013-10-09 10:02:00,
2013-10-09 06:07:00,30.0,30.0,30.23,SSE,157,1.0,1.0,100,0.00,,,0.00,TxWx,2013-10-09 10:07:00,
2013-10-09 06:12:00,30.0,30.0,30.23,SSE,157,0.0,0.0,100,0.00,,,0.00,TxWx,2013-10-09 10:12:00,
2013-10-09 06:17:00,30.0,30.0,30.23,SSE,157,0.0,0.0,100,0.00,,,0.00,TxWx,2013-10-09 10:17:00,
2013-10-09 06:22:00,30.0,30.0,30.23,SSE,157,0.0,0.0,100,0.00,,,0.00,TxWx,2013-10-09 10:22:00,
2013-10-09 06:27:00,30.0,30.0,30.23,SSE,157,0.0,0.0,100,0.00,,,0.00,TxWx,2013-10-09 10:27:00,
2013-10-09 06:32:00,30.0,30.0,30.24,SSE,157,0.0,0.0,100,0.00,,,0.00,TxWx,2013-10-09 10:32:00,
2013-10-09 06:38:00,30.0,30.0,30.24,SSE,157,1.0,2.0,100,0.00,,,0.00,TxWx,2013-10-09 10:38:00,
2013-10-09 06:42:00,29.0,29.0,30.24,SSE,157,0.0,1.0,100,0.00,,,0.00,TxWx,2013-10-09 10:42:00,
2013-10-09 06:48:00,29.0,29.0,30.24,SSE,157,0.0,1.0,100,0.00,,,0.00,TxWx,2013-10-09 10:48:00,
2013-10-09 06:53:00,29.0,29.0,30.24,SSE,157,0.0,1.0,100,0.00,,,0.00,TxWx,2013-10-09 10:53:00,
2013-10-09 06:58:00,29.0,29.0,30.24,SSE,157,1.0,1.0,100,0.00,,,0.00,TxWx,2013-10-09 10:58:00,
2013-10-09 07:03:00,29.0,29.0,30.24,SSE,157,0.0,0.0,100,0.00,,,0.00,TxWx,2013-10-09 11:03:00,
2013-10-09 07:08:00,29.0,29.0,30.24,SSE,157,0.0,0.0,100,0.00,,,0.00,TxWx,2013-10-09 11:08:00,
2013-10-09 07:13:00,29.0,29.0,30.24,SSE,157,0.0,0.0,100,0.00,,,0.00,TxWx,2013-10-09 11:13:00,
2013-10-09 07:19:00,29.0,29.0,30.24,SSE,157,0.0,0.0,100,0.00,,,0.00,TxWx,2013-10-09 11:19:00,
2013-10-09 07:24:00,29.0,29.0,30.24,SSE,157,0.0,0.0,100,0.00,,,0.00,TxWx,2013-10-09 11:24:00,
2013-10-09 07:29:00,29.0,29.0,30.25,SSE,157,0.0,0.0,100,0.00,,,0.00,TxWx,2013-10-09 11:29:00,
2013-10-09 07:34:00,30.0,30.0,30.25,SSE,157,1.0,1.0,100,0.00,,,0.00,TxWx,2013-10-09 11:34:00,
2013-10-09 07:39:00,30.0,30.0,30.25,SSE,157,1.0,1.0,100,0.00,,,0.00,TxWx,2013-10-09 11:39:00,
2013-10-09 07:44:00,30.0,30.0,30.25,SSE,157,1.0,1.0,100,0.00,,,0.00,TxWx,2013-10-09 11:44:00,
2013-10-09 07:49:00,30.0,30.0,30.25,SSE,157,1.0,1.0,100,0.00,,,0.00,TxWx,2013-10-09 11:49:00,
2013-10-09 07:54:00,31.0,31.0,30.25,SSE,157,1.0,1.0,100,0.00,,,0.00,TxWx,2013-10-09 11:54:00,
2013-10-09 07:59:00,31.0,31.0,30.25,SSE,157,1.0,1.0,100,0.00,,,0.00,TxWx,2013-10-09 11:59:00,
2013-10-09 08:05:00,31.0,31.0,30.26,SSE,157,1.0,1.0,100,0.00,,,0.00,TxWx,2013-10-09 12:05:00,
2013-10-09 08:10:00,31.0,31.0,30.25,SSW,202,0.0,0.0,100,0.00,,,0.00,TxWx,2013-10-09 12:10:00,
2013-10-09 08:15:00,32.0,32.0,30.25,SSE,157,1.0,2.0,100,0.00,,,0.00,TxWx,2013-10-09 12:15:00,
2013-10-09 08:20:00,32.0,32.0,30.25,ESE,112,3.0,3.0,100,0.00,,,0.00,TxWx,2013-10-09 12:20:00,
2013-10-09 08:25:00,32.0,32.0,30.25,SE,135,1.0,2.0,100,0.00,,,0.00,TxWx,2013-10-09 12:25:00,
2013-10-09 08:30:00,32.0,32.0,30.26,South,180,1.0,1.0,100,0.00,,,0.00,TxWx,2013-10-09 12:30:00,
2013-10-09 08:35:00,33.0,33.0,30.25,SSE,157,1.0,2.0,100,0.00,,,0.00,TxWx,2013-10-09 12:35:00,
2013-10-09 08:40:00,33.0,33.0,30.25,SSE,157,1.0,1.0,100,0.00,,,0.00,TxWx,2013-10-09 12:40:00,
2013-10-09 08:45:00,34.0,34.0,30.25,South,180,1.0,1.0,100,0.00,,,0.00,TxWx,2013-10-09 12:45:00,
2013-10-09 08:50:00,34.0,34.0,30.25,SE,135,2.0,3.0,100,0.00,,,0.00,TxWx,2013-10-09 12:50:00,
2013-10-09 08:55:00,34.0,34.0,30.25,South,180,0.0,0.0,100,0.00,,,0.00,TxWx,2013-10-09 12:55:00,
2013-10-09 09:03:00,35.0,35.0,30.25,SSE,157,0.0,0.0,100,0.00,,,0.00,TxWx,2013-10-09 13:03:00,
2013-10-09 09:08:00,36.0,36.0,30.25,SSE,157,0.0,1.0,100,0.00,,,0.00,TxWx,2013-10-09 13:08:00,
2013-10-09 09:13:00,36.0,36.0,30.25,SE,135,1.0,2.0,100,0.00,,,0.00,TxWx,2013-10-09 13:13:00,
2013-10-09 09:18:00,37.0,37.0,30.25,SSW,202,1.0,1.0,100,0.00,,,0.00,TxWx,2013-10-09 13:18:00,
2013-10-09 09:23:00,37.0,37.0,30.25,ESE,112,2.0,3.0,100,0.00,,,0.00,TxWx,2013-10-09 13:23:00,
2013-10-09 09:28:00,38.0,38.0,30.25,SE,135,3.0,3.0,100,0.00,,,0.00,TxWx,2013-10-09 13:28:00,
2013-10-09 09:33:00,38.0,38.0,30.25,SSW,202,0.0,0.0,100,0.00,,,0.00,TxWx,2013-10-09 13:33:00,
2013-10-09 09:38:00,39.0,39.0,30.25,South,180,0.0,1.0,100,0.00,,,0.00,TxWx,2013-10-09 13:38:00,
2013-10-09 09:43:00,40.0,40.0,30.25,SE,135,3.0,3.0,100,0.00,,,0.00,TxWx,2013-10-09 13:43:00,
2013-10-09 09:49:00,40.0,40.0,30.26,SW,225,0.0,0.0,100,0.00,,,0.00,TxWx,2013-10-09 13:49:00,
2013-10-09 09:54:00,41.0,41.0,30.26,SE,135,1.0,2.0,100,0.00,,,0.00,TxWx,2013-10-09 13:54:00,
2013-10-09 09:59:00,42.0,42.0,30.26,SSE,157,2.0,3.0,100,0.00,,,0.00,TxWx,2013-10-09 13:59:00,
2013-10-09 10:02:00,52.0,38.0,30.15,SSW,202,0.0,0.0,58,0.00,,,0.00,TxWx,2013-10-09 14:02:00,
2013-10-09 10:04:00,43.0,43.0,30.26,East,90,3.0,3.0,100,0.00,,,0.00,TxWx,2013-10-09 14:04:00,
2013-10-09 10:07:00,52.0,38.0,30.15,ESE,112,0.0,0.0,60,0.00,,,0.00,TxWx,2013-10-09 14:07:00,
2013-10-09 10:08:00,51.0,37.0,30.15,South,180,0.0,0.0,60,0.00,,,0.00,TxWx,2013-10-09 14:08:00,
2013-10-09 10:09:00,43.0,43.0,30.26,ESE,112,1.0,1.0,100,0.00,,,0.00,TxWx,2013-10-09 14:09:00,
2013-10-09 10:11:00,51.0,38.0,30.15,NE,45,2.0,2.0,61,0.00,,,0.00,TxWx,2013-10-09 14:11:00,
2013-10-09 10:12:00,51.0,38.0,30.15,East,90,1.0,2.0,61,0.00,,,0.00,TxWx,2013-10-09 14:12:00,
2013-10-09 10:13:00,51.0,38.0,30.15,SE,135,0.0,0.0,61,0.00,,,0.00,TxWx,2013-10-09 14:13:00,
2013-10-09 10:14:00,44.0,44.0,30.26,SW,225,1.0,1.0,100,0.00,,,0.00,TxWx,2013-10-09 14:14:00,
2013-10-09 10:17:00,51.0,38.0,30.15,South,180,0.0,0.0,62,0.00,,,0.00,TxWx,2013-10-09 14:17:00,
2013-10-09 10:18:00,51.0,38.0,30.15,SE,135,0.0,0.0,62,0.00,,,0.00,TxWx,2013-10-09 14:18:00,
2013-10-09 10:19:00,45.0,45.0,30.25,SSE,157,3.0,3.0,100,0.00,,,0.00,TxWx,2013-10-09 14:19:00,
2013-10-09 10:20:00,51.0,39.0,30.15,ESE,112,1.0,1.0,63,0.00,,,0.00,TxWx,2013-10-09 14:20:00,
2013-10-09 10:22:00,51.0,39.0,30.15,SSE,157,1.0,1.0,63,0.00,,,0.00,TxWx,2013-10-09 14:22:00,
2013-10-09 10:23:00,51.0,39.0,30.15,SSE,157,1.0,1.0,63,0.00,,,0.00,TxWx,2013-10-09 14:23:00,
2013-10-09 10:24:00,46.0,46.0,30.26,SE,135,1.0,1.0,100,0.00,,,0.00,TxWx,2013-10-09 14:24:00,
2013-10-09 10:25:00,50.0,38.0,30.15,SE,135,1.0,1.0,64,0.00,,,0.00,TxWx,2013-10-09 14:25:00,
2013-10-09 10:29:00,46.0,46.0,30.25,SE,135,2.0,3.0,100,0.00,,,0.00,TxWx,2013-10-09 14:29:00,
2013-10-09 10:34:00,47.0,47.0,30.25,East,90,1.0,2.0,100,0.00,,,0.00,TxWx,2013-10-09 14:34:00,
2013-10-09 10:40:00,48.0,48.0,30.25,WSW,247,1.0,1.0,100,0.00,,,0.00,TxWx,2013-10-09 14:40:00,
2013-10-09 10:45:00,48.0,48.0,30.26,SE,135,1.0,1.0,100,0.00,,,0.00,TxWx,2013-10-09 14:45:00,
2013-10-09 10:50:00,49.0,49.0,30.25,SE,135,1.0,2.0,99,0.00,,,0.00,TxWx,2013-10-09 14:50:00,
2013-10-09 10:54:00,48.0,37.0,30.15,South,180,0.0,0.0,67,0.00,,,0.00,TxWx,2013-10-09 14:54:00,
2013-10-09 10:55:00,50.0,49.0,30.25,WNW,292,2.0,2.0,97,0.00,,,0.00,TxWx,2013-10-09 14:55:00,
2013-10-09 10:56:00,48.0,37.0,30.15,South,180,0.0,0.0,67,0.00,,,0.00,TxWx,2013-10-09 14:56:00,
2013-10-09 10:57:00,47.0,37.0,30.15,South,180,0.0,0.0,67,0.00,,,0.00,TxWx,2013-10-09 14:57:00,
2013-10-09 11:00:00,50.0,48.0,30.25,SSE,157,2.0,3.0,94,0.00,,,0.00,TxWx,2013-10-09 15:00:00,
2013-10-09 11:01:00,47.0,37.0,30.15,South,180,0.0,0.0,68,0.00,,,0.00,TxWx,2013-10-09 15:01:00,
2013-10-09 11:04:00,47.0,37.0,30.15,South,180,0.0,0.0,68,0.00,,,0.00,TxWx,2013-10-09 15:04:00,
2013-10-09 11:05:00,51.0,48.0,30.25,South,180,2.0,3.0,90,0.00,,,0.00,TxWx,2013-10-09 15:05:00,
2013-10-09 11:06:00,47.0,37.0,30.15,South,180,0.0,0.0,68,0.00,,,0.00,TxWx,2013-10-09 15:06:00,
2013-10-09 11:07:00,46.0,36.0,30.15,SSW,202,0.0,0.0,68,0.00,,,0.00,TxWx,2013-10-09 15:07:00,
2013-10-09 11:10:00,52.0,48.0,30.25,NE,45,2.0,3.0,87,0.00,,,0.00,TxWx,2013-10-09 15:10:00,
2013-10-09 11:11:00,46.0,37.0,30.15,SSW,202,0.0,0.0,70,0.00,,,0.00,TxWx,2013-10-09 15:11:00,
2013-10-09 11:13:00,46.0,37.0,30.15,SSW,202,0.0,0.0,70,0.00,,,0.00,TxWx,2013-10-09 15:13:00,
2013-10-09 11:14:00,46.0,37.0,30.15,SSW,202,2.0,2.0,70,0.00,,,0.00,TxWx,2013-10-09 15:14:00,
2013-10-09 11:15:00,53.0,47.0,30.25,SE,135,2.0,2.0,81,0.00,,,0.00,TxWx,2013-10-09 15:15:00,
2013-10-09 11:19:00,45.0,37.0,30.15,SSW,202,1.0,2.0,73,0.00,,,0.00,TxWx,2013-10-09 15:19:00,
2013-10-09 11:20:00,53.0,45.0,30.25,East,90,3.0,4.0,76,0.00,,,0.00,TxWx,2013-10-09 15:20:00,
2013-10-09 11:21:00,45.0,37.0,30.15,SSW,202,1.0,1.0,74,0.00,,,0.00,TxWx,2013-10-09 15:21:00,
2013-10-09 11:22:00,45.0,37.0,30.15,WSW,247,1.0,2.0,74,0.00,,,0.00,TxWx,2013-10-09 15:22:00,
2013-10-09 11:25:00,53.0,45.0,30.25,North,0,3.0,4.0,74,0.00,,,0.00,TxWx,2013-10-09 15:25:00,
2013-10-09 11:26:00,45.0,37.0,30.15,South,180,0.0,0.0,75,0.00,,,0.00,TxWx,2013-10-09 15:26:00,
2013-10-09 11:27:00,45.0,37.0,30.15,SW,225,0.0,0.0,75,0.00,,,0.00,TxWx,2013-10-09 15:27:00,
2013-10-09 11:29:00,45.0,37.0,30.15,South,180,0.0,0.0,75,0.00,,,0.00,TxWx,2013-10-09 15:29:00,
2013-10-09 11:30:00,53.0,44.0,30.25,NE,45,3.0,3.0,72,0.00,,,0.00,TxWx,2013-10-09 15:30:00,
2013-10-09 11:31:00,45.0,38.0,30.15,South,180,0.0,0.0,75,0.00,,,0.00,TxWx,2013-10-09 15:31:00,
2013-10-09 11:33:00,44.0,37.0,30.15,South,180,0.0,0.0,75,0.00,,,0.00,TxWx,2013-10-09 15:33:00,
2013-10-09 11:34:00,44.0,37.0,30.15,South,180,0.0,0.0,75,0.00,,,0.00,TxWx,2013-10-09 15:34:00,
2013-10-09 11:35:00,54.0,44.0,30.25,NNW,337,2.0,3.0,70,0.00,,,0.00,TxWx,2013-10-09 15:35:00,
2013-10-09 11:40:00,54.0,43.0,30.25,SW,225,2.0,3.0,68,0.00,,,0.00,TxWx,2013-10-09 15:40:00,
2013-10-09 11:46:00,55.0,43.0,30.25,WSW,247,9.0,9.0,65,0.00,,,0.00,TxWx,2013-10-09 15:46:00,
2013-10-09 11:51:00,55.0,43.0,30.25,SSE,157,0.0,1.0,64,0.00,,,0.00,TxWx,2013-10-09 15:51:00,
2013-10-09 11:56:00,56.0,43.0,30.25,WSW,247,3.0,3.0,62,0.00,,,0.00,TxWx,2013-10-09 15:56:00,
2013-10-09 12:01:00,56.0,42.0,30.25,SSE,157,6.0,6.0,59,0.00,,,0.00,TxWx,2013-10-09 16:01:00,
2013-10-09 12:03:00,43.0,37.0,30.15,SSE,157,0.0,0.0,79,0.00,,,0.00,TxWx,2013-10-09 16:03:00,
2013-10-09 12:04:00,43.0,37.0,30.15,SE,135,0.0,0.0,79,0.00,,,0.00,TxWx,2013-10-09 16:04:00,
2013-10-09 12:05:00,43.0,37.0,30.15,SSE,157,0.0,0.0,79,0.00,,,0.00,TxWx,2013-10-09 16:05:00,
2013-10-09 12:06:00,57.0,42.0,30.25,WSW,247,3.0,4.0,57,0.00,,,0.00,TxWx,2013-10-09 16:06:00,
2013-10-09 12:07:00,43.0,37.0,30.15,SSE,157,0.0,0.0,79,0.00,,,0.00,TxWx,2013-10-09 16:07:00,
2013-10-09 12:08:00,43.0,37.0,30.15,SSE,157,0.0,0.0,79,0.00,,,0.00,TxWx,2013-10-09 16:08:00,
2013-10-09 12:09:00,43.0,37.0,30.15,SSW,202,0.0,0.0,79,0.00,,,0.00,TxWx,2013-10-09 16:09:00,
2013-10-09 12:11:00,57.0,41.0,30.25,West,270,3.0,3.0,56,0.00,,,0.00,TxWx,2013-10-09 16:11:00,
2013-10-09 12:12:00,42.0,36.0,30.15,South,180,0.0,0.0,80,0.00,,,0.00,TxWx,2013-10-09 16:12:00,
2013-10-09 12:15:00,42.0,36.0,30.15,SSE,157,0.0,0.0,80,0.00,,,0.00,TxWx,2013-10-09 16:15:00,
2013-10-09 12:16:00,57.0,40.0,30.25,SE,135,4.0,5.0,52,0.00,,,0.00,TxWx,2013-10-09 16:16:00,
2013-10-09 12:17:00,42.0,36.0,30.15,SSE,157,0.0,0.0,81,0.00,,,0.00,TxWx,2013-10-09 16:17:00,
2013-10-09 12:19:00,43.0,38.0,30.15,South,180,0.0,0.0,81,0.00,,,0.00,TxWx,2013-10-09 16:19:00,
2013-10-09 12:20:00,43.0,38.0,30.15,SSE,157,0.0,0.0,81,0.00,,,0.00,TxWx,2013-10-09 16:20:00,
2013-10-09 12:21:00,57.0,39.0,30.24,ENE,67,1.0,3.0,51,0.00,,,0.00,TxWx,2013-10-09 16:21:00,
2013-10-09 12:25:00,43.0,38.0,30.15,SSW,202,0.0,0.0,82,0.00,,,0.00,TxWx,2013-10-09 16:25:00,
2013-10-09 12:26:00,57.0,39.0,30.24,WSW,247,3.0,4.0,51,0.00,,,0.00,TxWx,2013-10-09 16:26:00,
2013-10-09 12:27:00,42.0,37.0,30.15,South,180,0.0,0.0,82,0.00,,,0.00,TxWx,2013-10-09 16:27:00,
2013-10-09 12:28:00,42.0,37.0,30.15,South,180,0.0,0.0,82,0.00,,,0.00,TxWx,2013-10-09 16:28:00,
2013-10-09 12:30:00,42.0,37.0,30.15,South,180,0.0,0.0,82,0.00,,,0.00,TxWx,2013-10-09 16:30:00,
2013-10-09 12:31:00,58.0,39.0,30.24,SSE,157,2.0,2.0,50,0.00,,,0.00,TxWx,2013-10-09 16:31:00,
2013-10-09 12:33:00,42.0,37.0,30.15,South,180,0.0,0.0,82,0.00,,,0.00,TxWx,2013-10-09 16:33:00,
2013-10-09 12:34:00,42.0,37.0,30.15,South,180,0.0,0.0,82,0.00,,,0.00,TxWx,2013-10-09 16:34:00,
2013-10-09 12:36:00,58.0,39.0,30.24,SSW,202,5.0,6.0,49,0.00,,,0.00,TxWx,2013-10-09 16:36:00,
2013-10-09 12:42:00,58.0,37.0,30.24,ESE,112,3.0,3.0,46,0.00,,,0.00,TxWx,2013-10-09 16:42:00,
2013-10-09 12:47:00,58.0,37.0,30.23,ESE,112,5.0,5.0,46,0.00,,,0.00,TxWx,2013-10-09 16:47:00,
2013-10-09 12:52:00,58.0,37.0,30.23,SSW,202,4.0,4.0,46,0.00,,,0.00,TxWx,2013-10-09 16:52:00,
2013-10-09 12:57:00,58.0,38.0,30.22,ESE,112,3.0,3.0,47,0.00,,,0.00,TxWx,2013-10-09 16:57:00,
2013-10-09 13:02:00,58.0,37.0,30.22,ESE,112,3.0,5.0,46,0.00,,,0.00,TxWx,2013-10-09 17:02:00,
2013-10-09 13:07:00,58.0,36.0,30.21,ESE,112,3.0,5.0,44,0.00,,,0.00,TxWx,2013-10-09 17:07:00,
2013-10-09 13:12:00,58.0,37.0,30.21,SE,135,2.0,2.0,46,0.00,,,0.00,TxWx,2013-10-09 17:12:00,
2013-10-09 13:17:00,59.0,37.0,30.21,East,90,5.0,6.0,45,0.00,,,0.00,TxWx,2013-10-09 17:17:00,
2013-10-09 13:22:00,59.0,37.0,30.21,East,90,4.0,5.0,45,0.00,,,0.00,TxWx,2013-10-09 17:22:00,
2013-10-09 13:27:00,58.0,36.0,30.20,East,90,6.0,6.0,43,0.00,,,0.00,TxWx,2013-10-09 17:27:00,
2013-10-09 13:33:00,58.0,36.0,30.21,NE,45,4.0,5.0,43,0.00,,,0.00,TxWx,2013-10-09 17:33:00,
2013-10-09 13:38:00,59.0,36.0,30.20,East,90,6.0,6.0,43,0.00,,,0.00,TxWx,2013-10-09 17:38:00,
2013-10-09 13:43:00,59.0,36.0,30.20,ESE,112,2.0,3.0,42,0.00,,,0.00,TxWx,2013-10-09 17:43:00,
2013-10-09 13:48:00,59.0,36.0,30.20,East,90,2.0,3.0,43,0.00,,,0.00,TxWx,2013-10-09 17:48:00,
2013-10-09 13:53:00,60.0,36.0,30.20,ESE,112,5.0,5.0,42,0.00,,,0.00,TxWx,2013-10-09 17:53:00,
2013-10-09 13:58:00,60.0,36.0,30.19,SSW,202,3.0,3.0,41,0.00,,,0.00,TxWx,2013-10-09 17:58:00,
2013-10-09 14:03:00,61.0,37.0,30.19,WSW,247,1.0,1.0,41,0.00,,,0.00,TxWx,2013-10-09 18:03:00,
2013-10-09 14:08:00,61.0,36.0,30.18,South,180,2.0,4.0,39,0.00,,,0.00,TxWx,2013-10-09 18:08:00,
2013-10-09 14:13:00,61.0,35.0,30.18,ESE,112,3.0,4.0,39,0.00,,,0.00,TxWx,2013-10-09 18:13:00,
2013-10-09 14:18:00,61.0,36.0,30.18,South,180,1.0,3.0,40,0.00,,,0.00,TxWx,2013-10-09 18:18:00,
2013-10-09 14:23:00,62.0,37.0,30.18,SW,225,1.0,1.0,39,0.00,,,0.00,TxWx,2013-10-09 18:23:00,
2013-10-09 14:29:00,62.0,36.0,30.18,East,90,2.0,2.0,38,0.00,,,0.00,TxWx,2013-10-09 18:29:00,
2013-10-09 14:34:00,62.0,35.0,30.17,ESE,112,5.0,6.0,36,0.00,,,0.00,TxWx,2013-10-09 18:34:00,
2013-10-09 14:39:00,61.0,33.0,30.17,East,90,6.0,6.0,36,0.00,,,0.00,TxWx,2013-10-09 18:39:00,
2013-10-09 14:44:00,61.0,33.0,30.17,ESE,112,3.0,3.0,35,0.00,,,0.00,TxWx,2013-10-09 18:44:00,
2013-10-09 14:49:00,61.0,33.0,30.17,NNW,337,2.0,3.0,35,0.00,,,0.00,TxWx,2013-10-09 18:49:00,
2013-10-09 14:54:00,62.0,34.0,30.17,NNW,337,3.0,3.0,35,0.00,,,0.00,TxWx,2013-10-09 18:54:00,
2013-10-09 14:59:00,62.0,34.0,30.17,NW,315,2.0,3.0,35,0.00,,,0.00,TxWx,2013-10-09 18:59:00,
2013-10-09 15:00:00,37.0,35.0,30.15,SE,135,1.0,1.0,91,0.00,,,0.00,TxWx,2013-10-09 19:00:00,
2013-10-09 15:01:00,37.0,35.0,30.15,ESE,112,1.0,1.0,91,0.00,,,0.00,TxWx,2013-10-09 19:01:00,
2013-10-09 15:02:00,37.0,35.0,30.15,South,180,0.0,1.0,92,0.00,,,0.00,TxWx,2013-10-09 19:02:00,
2013-10-09 15:03:00,37.0,35.0,30.15,South,180,0.0,0.0,92,0.00,,,0.00,TxWx,2013-10-09 19:03:00,
2013-10-09 15:04:00,62.0,32.0,30.17,ESE,112,3.0,3.0,33,0.00,,,0.00,TxWx,2013-10-09 19:04:00,
2013-10-09 15:05:00,37.0,35.0,30.15,SSE,157,1.0,1.0,92,0.00,,,0.00,TxWx,2013-10-09 19:05:00,
2013-10-09 15:06:00,37.0,35.0,30.15,South,180,0.0,1.0,92,0.00,,,0.00,TxWx,2013-10-09 19:06:00,
2013-10-09 15:07:00,37.0,35.0,30.15,South,180,0.0,1.0,92,0.00,,,0.00,TxWx,2013-10-09 19:07:00,
2013-10-09 15:08:00,37.0,35.0,30.15,South,180,0.0,0.0,92,0.00,,,0.00,TxWx,2013-10-09 19:08:00,
2013-10-09 15:09:00,62.0,33.0,30.17,NNW,337,3.0,3.0,33,0.00,,,0.00,TxWx,2013-10-09 19:09:00,
2013-10-09 15:10:00,37.0,35.0,30.15,SSE,157,1.0,1.0,92,0.00,,,0.00,TxWx,2013-10-09 19:10:00,
2013-10-09 15:11:00,37.0,35.0,30.15,SSE,157,1.0,1.0,92,0.00,,,0.00,TxWx,2013-10-09 19:11:00,
2013-10-09 15:12:00,37.0,35.0,30.15,SSE,157,1.0,1.0,92,0.00,,,0.00,TxWx,2013-10-09 19:12:00,
2013-10-09 15:13:00,37.0,35.0,30.15,South,180,0.0,1.0,92,0.00,,,0.00,TxWx,2013-10-09 19:13:00,
2013-10-09 15:14:00,62.0,33.0,30.17,SE,135,2.0,5.0,33,0.00,,,0.00,TxWx,2013-10-09 19:14:00,
2013-10-09 15:15:00,37.0,35.0,30.15,SSE,157,1.0,1.0,92,0.00,,,0.00,TxWx,2013-10-09 19:15:00,
2013-10-09 15:16:00,37.0,35.0,30.14,ESE,112,1.0,1.0,92,0.00,,,0.00,TxWx,2013-10-09 19:16:00,
2013-10-09 15:17:00,37.0,35.0,30.14,SSW,202,0.0,0.0,92,0.00,,,0.00,TxWx,2013-10-09 19:17:00,
2013-10-09 15:18:00,37.0,35.0,30.15,South,180,0.0,0.0,92,0.00,,,0.00,TxWx,2013-10-09 19:18:00,
2013-10-09 15:19:00,37.0,35.0,30.15,South,180,0.0,0.0,92,0.00,,,0.00,TxWx,2013-10-09 19:19:00,
2013-10-09 15:20:00,62.0,33.0,30.17,ENE,67,3.0,4.0,33,0.00,,,0.00,TxWx,2013-10-09 19:20:00,
2013-10-09 15:21:00,37.0,35.0,30.14,SSW,202,0.0,0.0,92,0.00,,,0.00,TxWx,2013-10-09 19:21:00,
2013-10-09 15:22:00,37.0,35.0,30.14,WSW,247,1.0,1.0,92,0.00,,,0.00,TxWx,2013-10-09 19:22:00,
2013-10-09 15:23:00,37.0,35.0,30.14,SSE,157,1.0,1.0,92,0.00,,,0.00,TxWx,2013-10-09 19:23:00,
2013-10-09 15:24:00,37.0,35.0,30.14,South,180,0.0,0.0,92,0.00,,,0.00,TxWx,2013-10-09 19:24:00,
2013-10-09 15:25:00,62.0,32.0,30.17,NW,315,1.0,1.0,33,0.00,,,0.00,TxWx,2013-10-09 19:25:00,
2013-10-09 15:26:00,37.0,35.0,30.14,South,180,0.0,0.0,92,0.00,,,0.00,TxWx,2013-10-09 19:26:00,
2013-10-09 15:27:00,36.0,34.0,30.14,South,180,0.0,0.0,92,0.00,,,0.00,TxWx,2013-10-09 19:27:00,
2013-10-09 15:28:00,36.0,34.0,30.14,South,180,0.0,0.0,92,0.00,,,0.00,TxWx,2013-10-09 19:28:00,
2013-10-09 15:30:00,62.0,33.0,30.17,WSW,247,1.0,3.0,33,0.00,,,0.00,TxWx,2013-10-09 19:30:00,
2013-10-09 15:35:00,63.0,33.0,30.17,North,0,2.0,2.0,33,0.00,,,0.00,TxWx,2013-10-09 19:35:00,
2013-10-09 15:40:00,63.0,34.0,30.17,North,0,2.0,2.0,34,0.00,,,0.00,TxWx,2013-10-09 19:40:00,
2013-10-09 15:45:00,63.0,36.0,30.16,South,180,2.0,3.0,36,0.00,,,0.00,TxWx,2013-10-09 19:45:00,
2013-10-09 15:50:00,63.0,36.0,30.16,ENE,67,5.0,6.0,37,0.00,,,0.00,TxWx,2013-10-09 19:50:00,
2013-10-09 15:55:00,63.0,37.0,30.16,SW,225,1.0,1.0,38,0.00,,,0.00,TxWx,2013-10-09 19:55:00,
2013-10-09 16:00:00,63.0,37.0,30.15,SE,135,3.0,3.0,38,0.00,,,0.00,TxWx,2013-10-09 20:00:00,
2013-10-09 16:05:00,63.0,37.0,30.15,ENE,67,4.0,5.0,38,0.00,,,0.00,TxWx,2013-10-09 20:05:00,
2013-10-09 16:10:00,63.0,37.0,30.15,ESE,112,1.0,2.0,38,0.00,,,0.00,TxWx,2013-10-09 20:10:00,
2013-10-09 16:16:00,63.0,37.0,30.15,ESE,112,1.0,2.0,39,0.00,,,0.00,TxWx,2013-10-09 20:16:00,
2013-10-09 16:21:00,63.0,37.0,30.15,South,180,1.0,2.0,38,0.00,,,0.00,TxWx,2013-10-09 20:21:00,
2013-10-09 16:26:00,63.0,37.0,30.15,ESE,112,4.0,5.0,38,0.00,,,0.00,TxWx,2013-10-09 20:26:00,
2013-10-09 16:31:00,63.0,37.0,30.15,ESE,112,4.0,5.0,38,0.00,,,0.00,TxWx,2013-10-09 20:31:00,
2013-10-09 16:36:00,63.0,37.0,30.15,SSW,202,1.0,3.0,39,0.00,,,0.00,TxWx,2013-10-09 20:36:00,
2013-10-09 16:41:00,63.0,38.0,30.15,SSE,157,1.0,3.0,39,0.00,,,0.00,TxWx,2013-10-09 20:41:00,
2013-10-09 16:46:00,63.0,38.0,30.14,West,270,2.0,2.0,39,0.00,,,0.00,TxWx,2013-10-09 20:46:00,
2013-10-09 16:51:00,63.0,37.0,30.15,East,90,2.0,2.0,39,0.00,,,0.00,TxWx,2013-10-09 20:51:00,
2013-10-09 16:56:00,63.0,38.0,30.14,North,0,2.0,2.0,40,0.00,,,0.00,TxWx,2013-10-09 20:56:00,
2013-10-09 16:59:00,35.0,34.0,30.13,South,180,1.0,1.0,95,0.00,,,0.00,TxWx,2013-10-09 20:59:00,
2013-10-09 17:01:00,63.0,38.0,30.14,ENE,67,2.0,3.0,39,0.00,,,0.00,TxWx,2013-10-09 21:01:00,
2013-10-09 17:02:00,35.0,34.0,30.13,SSE,157,0.0,1.0,95,0.00,,,0.00,TxWx,2013-10-09 21:02:00,
2013-10-09 17:04:00,35.0,34.0,30.13,SE,135,1.0,2.0,95,0.00,,,0.00,TxWx,2013-10-09 21:04:00,
2013-10-09 17:05:00,35.0,34.0,30.13,South,180,1.0,1.0,95,0.00,,,0.00,TxWx,2013-10-09 21:05:00,
2013-10-09 17:06:00,63.0,38.0,30.14,SE,135,3.0,3.0,40,0.00,,,0.00,TxWx,2013-10-09 21:06:00,
2013-10-09 17:07:00,35.0,34.0,30.13,SSW,202,0.0,0.0,95,0.00,,,0.00,TxWx,2013-10-09 21:07:00,
2013-10-09 17:10:00,35.0,34.0,30.13,South,180,0.0,0.0,95,0.00,,,0.00,TxWx,2013-10-09 21:10:00,
2013-10-09 17:12:00,62.0,37.0,30.14,ESE,112,4.0,5.0,40,0.00,,,0.00,TxWx,2013-10-09 21:12:00,
2013-10-09 17:13:00,35.0,34.0,30.13,South,180,0.0,0.0,95,0.00,,,0.00,TxWx,2013-10-09 21:13:00,
2013-10-09 17:14:00,35.0,34.0,30.13,South,180,0.0,0.0,95,0.00,,,0.00,TxWx,2013-10-09 21:14:00,
2013-10-09 17:15:00,35.0,34.0,30.13,South,180,0.0,0.0,95,0.00,,,0.00,TxWx,2013-10-09 21:15:00,
2013-10-09 17:16:00,35.0,34.0,30.13,South,180,0.0,0.0,95,0.00,,,0.00,TxWx,2013-10-09 21:16:00,
2013-10-09 17:17:00,62.0,38.0,30.14,ESE,112,3.0,5.0,41,0.00,,,0.00,TxWx,2013-10-09 21:17:00,
2013-10-09 17:19:00,34.0,33.0,30.13,South,180,0.0,0.0,95,0.00,,,0.00,TxWx,2013-10-09 21:19:00,
2013-10-09 17:20:00,34.0,33.0,30.13,South,180,0.0,0.0,95,0.00,,,0.00,TxWx,2013-10-09 21:20:00,
2013-10-09 17:21:00,34.0,33.0,30.13,South,180,0.0,0.0,95,0.00,,,0.00,TxWx,2013-10-09 21:21:00,
2013-10-09 17:22:00,62.0,38.0,30.14,East,90,2.0,2.0,41,0.00,,,0.00,TxWx,2013-10-09 21:22:00,
2013-10-09 17:27:00,62.0,38.0,30.14,ESE,112,3.0,3.0,41,0.00,,,0.00,TxWx,2013-10-09 21:27:00,
2013-10-09 17:32:00,62.0,38.0,30.14,South,180,1.0,2.0,41,0.00,,,0.00,TxWx,2013-10-09 21:32:00,
2013-10-09 17:37:00,61.0,37.0,30.14,ESE,112,2.0,2.0,42,0.00,,,0.00,TxWx,2013-10-09 21:37:00,
2013-10-09 17:42:00,61.0,38.0,30.14,ESE,112,1.0,2.0,42,0.00,,,0.00,TxWx,2013-10-09 21:42:00,
2013-10-09 17:47:00,61.0,38.0,30.14,SE,135,1.0,2.0,42,0.00,,,0.00,TxWx,2013-10-09 21:47:00,
2013-10-09 17:52:00,60.0,37.0,30.14,SE,135,1.0,1.0,43,0.00,,,0.00,TxWx,2013-10-09 21:52:00,
2013-10-09 17:57:00,60.0,38.0,30.14,SE,135,0.0,1.0,44,0.00,,,0.00,TxWx,2013-10-09 21:57:00,
2013-10-09 18:03:00,59.0,37.0,30.14,South,180,0.0,1.0,45,0.00,,,0.00,TxWx,2013-10-09 22:03:00,
2013-10-09 18:08:00,59.0,38.0,30.14,SSW,202,1.0,1.0,46,0.00,,,0.00,TxWx,2013-10-09 22:08:00,
2013-10-09 18:13:00,58.0,37.0,30.14,SSE,157,0.0,0.0,46,0.00,,,0.00,TxWx,2013-10-09 22:13:00,
2013-10-09 18:18:00,58.0,38.0,30.14,South,180,0.0,0.0,47,0.00,,,0.00,TxWx,2013-10-09 22:18:00,
2013-10-09 18:23:00,57.0,37.0,30.14,ESE,112,0.0,0.0,48,0.00,,,0.00,TxWx,2013-10-09 22:23:00,
2013-10-09 18:28:00,56.0,37.0,30.14,South,180,0.0,0.0,50,0.00,,,0.00,TxWx,2013-10-09 22:28:00,
2013-10-09 18:33:00,56.0,38.0,30.14,SSE,157,0.0,0.0,52,0.00,,,0.00,TxWx,2013-10-09 22:33:00,
2013-10-09 18:38:00,55.0,38.0,30.14,SSE,157,0.0,0.0,53,0.00,,,0.00,TxWx,2013-10-09 22:38:00,
2013-10-09 18:43:00,55.0,39.0,30.14,South,180,0.0,0.0,54,0.00,,,0.00,TxWx,2013-10-09 22:43:00,
2013-10-09 18:48:00,54.0,38.0,30.14,South,180,0.0,0.0,55,0.00,,,0.00,TxWx,2013-10-09 22:48:00,
2013-10-09 18:53:00,53.0,38.0,30.14,South,180,0.0,0.0,56,0.00,,,0.00,TxWx,2013-10-09 22:53:00,
2013-10-09 18:59:00,53.0,38.0,30.15,SSE,157,0.0,0.0,57,0.00,,,0.00,TxWx,2013-10-09 22:59:00,
2013-10-09 19:04:00,52.0,38.0,30.15,South,180,0.0,0.0,58,0.00,,,0.00,TxWx,2013-10-09 23:04:00,
2013-10-09 19:09:00,51.0,37.0,30.15,SSE,157,0.0,0.0,60,0.00,,,0.00,TxWx,2013-10-09 23:09:00,
2013-10-09 19:14:00,51.0,38.0,30.15,SSE,157,0.0,0.0,61,0.00,,,0.00,TxWx,2013-10-09 23:14:00,
2013-10-09 19:19:00,51.0,38.0,30.15,South,180,0.0,0.0,62,0.00,,,0.00,TxWx,2013-10-09 23:19:00,
2013-10-09 19:24:00,51.0,39.0,30.15,SSE,157,1.0,1.0,63,0.00,,,0.00,TxWx,2013-10-09 23:24:00,
2013-10-09 19:29:00,50.0,38.0,30.15,ESE,112,0.0,1.0,64,0.00,,,0.00,TxWx,2013-10-09 23:29:00,
2013-10-09 19:34:00,50.0,38.0,30.15,SSW,202,0.0,0.0,65,0.00,,,0.00,TxWx,2013-10-09 23:34:00,
2013-10-09 19:39:00,50.0,38.0,30.15,SSW,202,0.0,0.0,65,0.00,,,0.00,TxWx,2013-10-09 23:39:00,
2013-10-09 19:44:00,49.0,38.0,30.15,SSE,157,0.0,1.0,66,0.00,,,0.00,TxWx,2013-10-09 23:44:00,
2013-10-09 19:50:00,49.0,38.0,30.15,South,180,0.0,0.0,66,0.00,,,0.00,TxWx,2013-10-09 23:50:00,
2013-10-09 19:55:00,48.0,37.0,30.15,South,180,0.0,0.0,67,0.00,,,0.00,TxWx,2013-10-09 23:55:00,
2013-10-09 20:00:00,47.0,37.0,30.15,SSW,202,0.0,0.0,67,0.00,,,0.00,TxWx,2013-10-10 00:00:00,
2013-10-09 20:05:00,47.0,37.0,30.15,South,180,0.0,0.0,68,0.00,,,0.00,TxWx,2013-10-10 00:05:00,
2013-10-09 20:10:00,46.0,36.0,30.15,SSW,202,0.0,0.0,69,0.00,,,0.00,TxWx,2013-10-10 00:10:00,
2013-10-09 20:15:00,46.0,37.0,30.15,SSW,202,1.0,2.0,70,0.00,,,0.00,TxWx,2013-10-10 00:15:00,
2013-10-09 20:21:00,45.0,37.0,30.15,SW,225,1.0,2.0,73,0.00,,,0.00,TxWx,2013-10-10 00:21:00,
2013-10-09 20:26:00,45.0,37.0,30.15,SSW,202,0.0,1.0,74,0.00,,,0.00,TxWx,2013-10-10 00:26:00,
2013-10-09 20:31:00,45.0,37.0,30.15,South,180,0.0,0.0,75,0.00,,,0.00,TxWx,2013-10-10 00:31:00,
2013-10-09 20:36:00,44.0,37.0,30.15,SSW,202,0.0,0.0,75,0.00,,,0.00,TxWx,2013-10-10 00:36:00,
2013-10-09 20:41:00,44.0,37.0,30.15,SSW,202,0.0,0.0,76,0.00,,,0.00,TxWx,2013-10-10 00:41:00,
2013-10-09 20:46:00,44.0,37.0,30.15,South,180,0.0,0.0,76,0.00,,,0.00,TxWx,2013-10-10 00:46:00,
2013-10-09 20:51:00,44.0,37.0,30.15,South,180,0.0,0.0,77,0.00,,,0.00,TxWx,2013-10-10 00:51:00,
2013-10-09 20:56:00,43.0,36.0,30.15,South,180,0.0,0.0,78,0.00,,,0.00,TxWx,2013-10-10 00:56:00,
2013-10-09 21:01:00,43.0,37.0,30.15,South,180,0.0,0.0,78,0.00,,,0.00,TxWx,2013-10-10 01:01:00,
2013-10-09 21:07:00,43.0,37.0,30.15,SSE,157,0.0,0.0,79,0.00,,,0.00,TxWx,2013-10-10 01:07:00,
2013-10-09 21:12:00,43.0,37.0,30.15,South,180,0.0,0.0,79,0.00,,,0.00,TxWx,2013-10-10 01:12:00,
2013-10-09 21:17:00,42.0,36.0,30.15,SE,135,0.0,0.0,80,0.00,,,0.00,TxWx,2013-10-10 01:17:00,
2013-10-09 21:22:00,43.0,38.0,30.15,South,180,0.0,0.0,82,0.00,,,0.00,TxWx,2013-10-10 01:22:00,
2013-10-09 21:28:00,42.0,37.0,30.15,SSW,202,0.0,0.0,82,0.00,,,0.00,TxWx,2013-10-10 01:28:00,
2013-10-09 21:33:00,42.0,37.0,30.15,South,180,0.0,0.0,82,0.00,,,0.00,TxWx,2013-10-10 01:33:00,
2013-10-09 21:38:00,42.0,37.0,30.15,South,180,0.0,0.0,82,0.00,,,0.00,TxWx,2013-10-10 01:38:00,
2013-10-09 21:43:00,42.0,37.0,30.15,South,180,0.0,0.0,83,0.00,,,0.00,TxWx,2013-10-10 01:43:00,
2013-10-09 21:48:00,42.0,37.0,30.15,SE,135,0.0,0.0,83,0.00,,,0.00,TxWx,2013-10-10 01:48:00,
2013-10-09 21:53:00,41.0,36.0,30.15,South,180,0.0,0.0,84,0.00,,,0.00,TxWx,2013-10-10 01:53:00,
2013-10-09 21:58:00,41.0,37.0,30.15,SSE,157,0.0,0.0,84,0.00,,,0.00,TxWx,2013-10-10 01:58:00,
2013-10-09 22:03:00,41.0,37.0,30.16,SSE,157,0.0,0.0,85,0.00,,,0.00,TxWx,2013-10-10 02:03:00,
2013-10-09 22:08:00,41.0,37.0,30.16,South,180,0.0,0.0,85,0.00,,,0.00,TxWx,2013-10-10 02:08:00,
2013-10-09 22:14:00,41.0,37.0,30.16,South,180,0.0,0.0,85,0.00,,,0.00,TxWx,2013-10-10 02:14:00,
2013-10-09 22:19:00,40.0,36.0,30.16,South,180,0.0,0.0,86,0.00,,,0.00,TxWx,2013-10-10 02:19:00,
2013-10-09 22:24:00,40.0,36.0,30.16,SSW,202,0.0,0.0,86,0.00,,,0.00,TxWx,2013-10-10 02:24:00,
2013-10-09 22:29:00,40.0,36.0,30.16,South,180,0.0,0.0,86,0.00,,,0.00,TxWx,2013-10-10 02:29:00,
2013-10-09 22:34:00,40.0,36.0,30.16,SSW,202,0.0,1.0,87,0.00,,,0.00,TxWx,2013-10-10 02:34:00,
2013-10-09 22:39:00,40.0,36.0,30.16,South,180,1.0,1.0,87,0.00,,,0.00,TxWx,2013-10-10 02:39:00,
2013-10-09 22:44:00,40.0,37.0,30.16,South,180,0.0,0.0,88,0.00,,,0.00,TxWx,2013-10-10 02:44:00,
2013-10-09 22:49:00,40.0,36.0,30.16,SSW,202,0.0,0.0,88,0.00,,,0.00,TxWx,2013-10-10 02:49:00,
2013-10-09 22:54:00,39.0,36.0,30.16,SSW,202,0.0,0.0,88,0.00,,,0.00,TxWx,2013-10-10 02:54:00,
2013-10-09 22:59:00,39.0,36.0,30.15,South,180,0.0,0.0,88,0.00,,,0.00,TxWx,2013-10-10 02:59:00,
2013-10-09 23:05:00,39.0,36.0,30.15,South,180,0.0,0.0,89,0.00,,,0.00,TxWx,2013-10-10 03:05:00,
2013-10-09 23:10:00,39.0,36.0,30.15,SSE,157,0.0,1.0,89,0.00,,,0.00,TxWx,2013-10-10 03:10:00,
2013-10-09 23:15:00,39.0,36.0,30.15,South,180,0.0,1.0,90,0.00,,,0.00,TxWx,2013-10-10 03:15:00,
2013-10-09 23:20:00,39.0,36.0,30.15,SSE,157,0.0,0.0,90,0.00,,,0.00,TxWx,2013-10-10 03:20:00,
2013-10-09 23:25:00,39.0,36.0,30.15,ESE,112,2.0,3.0,90,0.00,,,0.00,TxWx,2013-10-10 03:25:00,
2013-10-09 23:30:00,38.0,35.0,30.15,SE,135,1.0,1.0,90,0.00,,,0.00,TxWx,2013-10-10 03:30:00,
2013-10-09 23:35:00,38.0,35.0,30.15,SSW,202,0.0,0.0,90,0.00,,,0.00,TxWx,2013-10-10 03:35:00,
2013-10-09 23:40:00,38.0,35.0,30.15,ESE,112,0.0,1.0,91,0.00,,,0.00,TxWx,2013-10-10 03:40:00,
2013-10-09 23:45:00,37.0,34.0,30.15,South,180,0.0,0.0,91,0.00,,,0.00,TxWx,2013-10-10 03:45:00,
2013-10-09 23:50:00,37.0,34.0,30.15,South,180,0.0,0.0,91,0.00,,,0.00,TxWx,2013-10-10 03:50:00,
2013-10-09 23:56:00,37.0,35.0,30.15,SSW,202,0.0,0.0,91,0.00,,,0.00,TxWx,2013-10-10 03:56:00,